Regional Weather Roundup
Issued by NWS

Home | Current Version | Previous Version | Graphics & Text | Print | Product List | Glossary On
Versions: 1 2 3 4 5 6 7 8 9 10 11 12 13 14 15 16 17 18 19 20 21 22 23 24 25 26 27 28 29 30 31 32 33 34 35 36 37 38 39 40 41 42 43 44 45 46 47 48 49 50
000
ASUS43 KBIS 222010
RWRND

NORTH DAKOTA REGIONAL WEATHER ROUNDUP
NATIONAL WEATHER SERVICE BISMARCK ND
300 PM CDT FRI SEP 22 2017

NOTE: "FAIR" INDICATES FEW OR NO CLOUDS BELOW 12,000 FEET WITH NO
SIGNIFICANT WEATHER AND/OR OBSTRUCTIONS TO VISIBILITY.


NDZ001>003-009>011-017-222100-
NORTHWEST NORTH DAKOTA

CITY           SKY/WX    TMP DP  RH WIND       PRES   REMARKS
WILLISTON      CLOUDY    49  39  68 N17       29.99S
MINOT          LGT RAIN  50  44  80 NW18      29.89F
MINOT AFB      LGT RAIN  49  45  87 N21       29.89S
$$

NDZ018>021-031>035-040>046-222100-
SOUTHWEST NORTH DAKOTA

CITY           SKY/WX    TMP DP  RH WIND       PRES   REMARKS
BISMARCK       CLOUDY    53  46  77 N15G24    29.81R
DICKINSON      CLOUDY    49  38  65 N21       29.87R
GARRISON         N/A     48  43  82 N21       29.86R
HETTINGER ARPT CLOUDY    49  38  65 N18G28    29.89R
$$

NDZ004>008-012>016-024-026-027-054-222100-
NORTHEAST NORTH DAKOTA

CITY           SKY/WX    TMP DP  RH WIND       PRES   REMARKS
GRAND FORKS    CLOUDY    73  60  63 N14       29.69F
GRND FRKS AFB  CLOUDY    69  55  62 NE16      29.71F
DEVILS LAKE    CLOUDY    58  46  64 N17       29.80R
$$

NDZ022-023-025-028>030-036>039-047>053-222100-
SOUTHEAST NORTH DAKOTA

CITY           SKY/WX    TMP DP  RH WIND       PRES   REMARKS
FARGO          PTSUNNY   82  70  66 NW6       29.64S
JAMESTOWN      CLOUDY    63  56  78 N14       29.70R
$$





USA.gov is the U.S. government's official web portal to all federal, state and local government web resources and services.